Location: Baia Mare
(47.6567°N, 23.5850°E)
Time: 18:41:38

ISS - Pass Details

Date: 17 March 2018
Orbit: 403 x 406 km, 51.6° (Epoch: 20 March)

Event Time Altitude Azimuth Distance (km) Brightness Sun altitude
Exits shadow 03:49:55 18° 86° (E) 1,078 -1.1 -27.4°
Drops below altitude 10° 03:50:55 10° 92° (E) 1,463 -0.3 -27.3°
Sets 03:53:02 0° 97° (E) 2,321 0.8 -27.0°
